Aurora, NE

10:48 AM CST on December 16, 2017 (GMT -0600)
Aurora Municipal

Weather History for KAUH - April, 2014

Change the Weather History Date:

Friday, April 11, 2014

  Actual Average Record
Temperature  
Mean Temperature 58 °F -  
Max Temperature 77 °F 63 °F 87 °F (1968)
Min Temperature 41 °F 37 °F 17 °F (1990)
Degree Days  
Heating Degree Days 6    
Growing Degree Days 8 (Base 50)    
Moisture  
Dew Point 29 °F    
Average Humidity 32    
Maximum Humidity 58    
Minimum Humidity 19    
Precipitation  
Precipitation 0.00 in - - ()
Sea Level Pressure  
Sea Level Pressure 29.95 in    
Wind  
Wind Speed 9 mph (SSW)    
Max Wind Speed 16 mph    
Max Gust Speed 23 mph    
Visibility 10 miles    
Events      
Averages and records for this station are not official NWS values.
T = Trace of Precipitation, MM = Missing Value Source: NWS Daily Summary

Daily Weather History Graph

Daily Weather History Graph

Search for Another Location

Airport or City:

Trip Planner

Search our weather history database for the weather conditions in past years. The results will help you decide how hot, cold, wet, or windy it might be!

Date:

Astronomy

Apr. 11, 2014 Rise Set
Actual Time 6:59 AM CDT 8:07 PM CDT
Civil Twilight 6:30 AM CDT 8:35 PM CDT
Nautical Twilight 5:57 AM CDT 9:09 PM CDT
Astronomical Twilight 5:22 AM CDT 9:44 PM CDT
Moon 4:48 PM CDT (4/11) 4:56 AM CDT (4/11)
Length of Visible Light 14h 04m
Length of Day
13h 08m
Waxing Gibbous, 87% of the Moon is Illuminated
Apr 11
Waxing Gibbous
Apr 15
Full
Apr 22
Last Quarter
Apr 29
New
May 6
First Quarter

Hourly Weather History & Observations

Time (CDT) Temp. Windchill Dew Point Humidity Pressure Visibility Wind Dir Wind Speed Gust Speed Precip Events Conditions
12:15 AM 54.5 °F - 22.6 °F 29% 30.00 in 10.0 mi South 10.4 mph - N/A   Mostly Cloudy
12:35 AM 55.6 °F - 22.3 °F 27% 30.01 in 10.0 mi South 8.1 mph - N/A   Mostly Cloudy
12:55 AM 54.7 °F - 23.0 °F 29% 30.04 in 10.0 mi WSW 4.6 mph - N/A   Overcast
1:15 AM 51.4 °F - 24.8 °F 35% 30.05 in 10.0 mi WSW 4.6 mph - N/A   Overcast
1:35 AM 49.8 °F - 25.5 °F 39% 30.04 in 10.0 mi SSW 8.1 mph - N/A   Mostly Cloudy
1:55 AM 48.4 °F - 25.7 °F 41% 30.03 in 10.0 mi SW 9.2 mph - N/A   Scattered Clouds
2:15 AM 48.6 °F - 25.3 °F 40% 30.01 in 10.0 mi SSW 11.5 mph - N/A   Clear
2:35 AM 49.5 °F - 24.8 °F 38% 30.00 in 10.0 mi SSW 8.1 mph - N/A   Clear
2:55 AM 46.8 °F - 24.8 °F 42% 30.01 in 10.0 mi SW 5.8 mph - N/A   Clear
3:15 AM 46.2 °F 44.1 °F 24.6 °F 43% 30.01 in 10.0 mi SSW 4.6 mph - N/A   Clear
3:35 AM 44.6 °F 41.4 °F 25.2 °F 46% 30.00 in 10.0 mi SSW 5.8 mph - N/A   Clear
3:55 AM 49.6 °F - 24.3 °F 37% 29.99 in 10.0 mi South 5.8 mph - N/A   Clear
4:15 AM 45.5 °F 42.5 °F 25.5 °F 46% 29.99 in 10.0 mi South 5.8 mph - N/A   Clear
4:35 AM 49.8 °F - 24.8 °F 38% 29.99 in 10.0 mi South 6.9 mph - N/A   Clear
4:55 AM 47.5 °F - 25.3 °F 42% 29.99 in 10.0 mi SSW 10.4 mph - N/A   Clear
5:15 AM 46.6 °F - 24.8 °F 43% 29.99 in 10.0 mi SSW 5.8 mph - N/A   Clear
5:35 AM 44.1 °F 40.8 °F 25.3 °F 48% 29.99 in 10.0 mi SW 5.8 mph - N/A   Clear
5:55 AM 43.3 °F 38.6 °F 26.4 °F 51% 30.00 in 10.0 mi SW 8.1 mph - N/A   Clear
6:15 AM 42.8 °F 38.0 °F 26.4 °F 52% 30.00 in 10.0 mi SW 8.1 mph - N/A   Clear
6:35 AM 42.4 °F 37.5 °F 26.6 °F 54% 30.01 in 10.0 mi SW 8.1 mph - N/A   Scattered Clouds
6:55 AM 43.2 °F 38.4 °F 27.7 °F 54% 30.02 in 10.0 mi SW 8.1 mph - N/A   Mostly Cloudy
7:15 AM 42.3 °F 39.4 °F 27.5 °F 56% 30.03 in 10.0 mi SW 4.6 mph - N/A   Scattered Clouds
7:35 AM 41.9 °F 39.0 °F 27.5 °F 57% 30.04 in 10.0 mi West 4.6 mph - N/A   Clear
7:55 AM 42.1 °F 37.7 °F 28.4 °F 58% 30.04 in 10.0 mi West 6.9 mph - N/A   Clear
8:15 AM 45.3 °F 42.3 °F 29.8 °F 55% 30.05 in 10.0 mi WSW 5.8 mph - N/A   Clear
8:35 AM 49.6 °F - 29.3 °F 46% 30.05 in 10.0 mi WSW 8.1 mph - N/A   Clear
9:15 AM 56.5 °F - 27.5 °F 33% 30.06 in 10.0 mi WSW 9.2 mph - N/A   Clear
9:35 AM 59.2 °F - 27.9 °F 30% 30.05 in 10.0 mi SW 9.2 mph - N/A   Clear
9:55 AM 61.3 °F - 26.4 °F 27% 30.05 in 10.0 mi SW 12.7 mph - N/A   Clear
10:15 AM 63.5 °F - 25.9 °F 24% 30.05 in 10.0 mi SW 15.0 mph - N/A   Clear
10:35 AM 64.6 °F - 25.0 °F 22% 30.05 in 10.0 mi SW 13.8 mph - N/A   Clear
10:55 AM 65.3 °F - 26.1 °F 23% 30.05 in 10.0 mi SSW 16.1 mph - N/A   Clear
11:15 AM 66.7 °F - 25.2 °F 21% 30.05 in 10.0 mi SW 13.8 mph - N/A   Clear
11:35 AM 67.1 °F - 27.3 °F 22% 30.04 in 10.0 mi SW 11.5 mph - N/A   Clear
11:55 AM 68.2 °F - 26.4 °F 21% 30.03 in 10.0 mi SW 12.7 mph 19.6 mph N/A   Clear
12:15 PM 69.6 °F - 26.1 °F 20% 30.02 in 10.0 mi SSW 15.0 mph - N/A   Clear
12:35 PM 70.3 °F - 27.1 °F 20% 30.01 in 10.0 mi South 11.5 mph 18.4 mph N/A   Clear
12:55 PM 70.7 °F - 27.5 °F 20% 30.00 in 10.0 mi SSW 12.7 mph 17.3 mph N/A   Clear
1:15 PM 71.4 °F - 29.5 °F 21% 29.99 in 10.0 mi SSW 9.2 mph - N/A   Clear
1:35 PM 72.3 °F - 30.7 °F 22% 29.98 in 10.0 mi SSW 11.5 mph 17.3 mph N/A   Clear
1:55 PM 72.9 °F - 30.2 °F 21% 29.96 in 10.0 mi SSW 9.2 mph 17.3 mph N/A   Clear
2:15 PM 73.4 °F - 30.4 °F 20% 29.96 in 10.0 mi SSE 8.1 mph 16.1 mph N/A   Clear
2:35 PM 74.7 °F - 31.6 °F 21% 29.95 in 10.0 mi South 12.7 mph 20.7 mph N/A   Clear
2:55 PM 74.7 °F - 31.1 °F 20% 29.94 in 10.0 mi SSW 11.5 mph - N/A   Clear
3:10 PM 74.8 °F - 30.4 °F 20% 29.93 in 10.0 mi SSW 10.4 mph 18.4 mph N/A   Clear
3:35 PM 76.1 °F - 31.5 °F 20% 29.91 in 10.0 mi South 9.2 mph - N/A   Clear
3:55 PM 76.3 °F - 31.3 °F 19% 29.90 in 10.0 mi South 12.7 mph - N/A   Clear
4:15 PM 75.4 °F - 32.0 °F 20% 29.89 in 10.0 mi SSW 15.0 mph 20.7 mph N/A   Clear
4:35 PM 76.3 °F - 32.2 °F 20% 29.88 in 10.0 mi SSW 10.4 mph 18.4 mph N/A   Clear
4:55 PM 75.7 °F - 31.8 °F 20% 29.87 in 10.0 mi South 13.8 mph 23.0 mph N/A   Clear
5:15 PM 76.5 °F - 31.8 °F 20% 29.86 in 10.0 mi South 12.7 mph 19.6 mph N/A   Clear
5:35 PM 75.6 °F - 31.8 °F 20% 29.86 in 10.0 mi South 13.8 mph 21.9 mph N/A   Clear
5:55 PM 76.3 °F - 32.2 °F 20% 29.85 in 10.0 mi South 16.1 mph 23.0 mph N/A   Clear
6:15 PM 75.2 °F - 32.0 °F 21% 29.84 in 10.0 mi South 13.8 mph 23.0 mph N/A   Clear
6:35 PM 73.9 °F - 32.0 °F 21% 29.84 in 10.0 mi South 15.0 mph 21.9 mph N/A   Clear
6:55 PM 72.7 °F - 32.0 °F 22% 29.83 in 10.0 mi South 10.4 mph 16.1 mph N/A   Clear
7:15 PM 71.8 °F - 32.4 °F 23% 29.83 in 10.0 mi South 10.4 mph - N/A   Clear
7:35 PM 71.2 °F - 32.2 °F 24% 29.82 in 10.0 mi South 9.2 mph - N/A   Clear
7:55 PM 70.3 °F - 32.4 °F 25% 29.83 in 10.0 mi South 10.4 mph - N/A   Clear
8:15 PM 69.8 °F - 32.4 °F 25% 29.83 in 10.0 mi South 8.1 mph - N/A   Clear
8:35 PM 69.1 °F - 32.5 °F 26% 29.83 in 10.0 mi South 8.1 mph - N/A   Clear
8:55 PM 68.0 °F - 32.5 °F 27% 29.84 in 10.0 mi South 9.2 mph - N/A   Clear
9:15 PM 64.4 °F - 32.9 °F 31% 29.83 in 10.0 mi SSE 8.1 mph - N/A   Clear
9:35 PM 63.5 °F - 33.1 °F 32% 29.82 in 10.0 mi SSE 9.2 mph - N/A   Clear
9:55 PM 64.6 °F - 33.1 °F 31% 29.82 in 10.0 mi SSE 10.4 mph - N/A   Clear
10:15 PM 63.9 °F - 33.1 °F 32% 29.81 in 10.0 mi SSE 11.5 mph - N/A   Clear
10:35 PM 61.0 °F - 32.5 °F 34% 29.80 in 10.0 mi SSE 11.5 mph - N/A   Clear
10:55 PM 60.4 °F - 32.7 °F 35% 29.79 in 10.0 mi SSE 12.7 mph - N/A   Clear
11:15 PM 59.9 °F - 33.4 °F 37% 29.78 in 10.0 mi SSE 12.7 mph - N/A   Clear
11:35 PM 58.3 °F - 33.6 °F 39% 29.77 in 10.0 mi SSE 12.7 mph - N/A   Clear
11:55 PM 58.1 °F - 33.8 °F 40% 29.77 in 10.0 mi SSE 12.7 mph - N/A   Clear